FW6629 Weather Reports


time (UTC)temp
C
wind
direction
speed
KPH
gust
KPH
rain 1hr
cm
rain 24hr
cm
rain mn
cm
humidity
%
barometer
mb
20260906131028 24 102 1.6 4.8 0.00 0.00 0.00 87 1013.7
20260906130528 24 89 1.6 3.2 0.00 0.00 0.00 87 1013.8
20260906130047 24 78 0.0 3.2 0.00 0.00 0.00 87 1013.8
20260906125525 23 0 0.0 3.2 0.00 0.00 0.00 88 1013.7
20260906125024 23 0 0.0 3.2 0.00 0.00 0.00 87 1013.8
20260906124552 23 0 0.0 3.2 0.00 0.00 0.00 88 1013.8
20260906124024 23 92 1.6 3.2 0.00 0.00 0.00 88 1013.6
20260906123524 23 0 0.0 3.2 0.00 0.00 0.00 88 1013.7
20260906123052 23 94 0.0 3.2 0.00 0.00 0.00 88 1013.7
20260906122524 23 0 0.0 3.2 0.00 0.00 0.00 88 1013.7
20260906122025 23 0 0.0 3.2 0.00 0.00 0.00 88 1013.8
20260906121550 23 0 0.0 3.2 0.00 0.00 0.00 88 1013.6
20260906121030 23 96 1.6 3.2 0.00 0.00 0.00 88 1013.5
20260906120530 23 102 0.0 3.2 0.00 0.00 0.00 88 1013.4
20260906120057 23 92 0.0 3.2 0.00 0.00 0.00 88 1013.3
20260906115525 23 92 0.0 1.6 0.00 0.00 0.00 87 1013.1
20260906115024 23 0 0.0 1.6 0.00 0.00 0.00 87 1013.0
20260906114542 23 101 1.6 3.2 0.00 0.00 0.00 87 1013.0
20260906114023 23 69 0.0 3.2 0.00 0.00 0.00 87 1013.1
20260906113525 23 0 0.0 3.2 0.00 0.00 0.00 87 1013.1
20260906113049 23 0 0.0 3.2 0.00 0.00 0.00 87 1013.1
20260906112524 23 308 0.0 4.8 0.00 0.00 0.00 87 1013.0
20260906112025 23 304 3.2 4.8 0.00 0.00 0.00 87 1012.9
20260906111549 23 308 0.0 3.2 0.00 0.00 0.00 87 1012.9
20260906111025 23 283 0.0 3.2 0.00 0.00 0.00 86 1012.6
20260906110525 23 180 0.0 3.2 0.00 0.00 0.00 86 1012.5
20260906110048 23 0 0.0 1.6 0.00 0.00 0.00 86 1012.6
20260906105524 23 0 0.0 1.6 0.00 0.00 0.00 86 1012.6
20260906105025 23 118 0.0 1.6 0.00 0.00 0.00 86 1012.5
20260906104552 23 118 1.6 4.8 0.00 0.00 0.00 86 1012.5
20260906104024 23 102 1.6 4.8 0.00 0.00 0.00 86 1012.5
20260906103523 23 94 1.6 3.2 0.00 0.00 0.00 86 1012.5
20260906103049 23 97 1.6 3.2 0.00 0.00 0.00 85 1012.5
20260906102524 23 96 0.0 3.2 0.00 0.00 0.00 84 1012.4
20260906102028 24 96 1.6 3.2 0.00 0.00 0.00 84 1012.4
20260906101550 24 96 0.0 3.2 0.00 0.00 0.00 84 1012.5
20260906101025 24 121 1.6 3.2 0.00 0.00 0.00 84 1012.4
20260906100527 24 39 0.0 3.2 0.00 0.00 0.00 84 1012.4
20260906100046 24 0 0.0 3.2 0.00 0.00 0.00 83 1012.3
20260906095523 24 0 0.0 3.2 0.00 0.00 0.00 83 1012.3
20260906095024 24 0 0.0 1.6 0.00 0.00 0.00 82 1012.4
20260906094550 24 0 0.0 0.0 0.00 0.00 0.00 82 1012.5
20260906094027 24 0 0.0 0.0 0.00 0.00 0.00 82 1012.6
20260906093524 24 0 0.0 0.0 0.00 0.00 0.00 81 1012.8
20260906093056 24 0 0.0 0.0 0.00 0.00 0.00 81 1012.9
20260906092528 24 0 0.0 0.0 0.00 0.00 0.00 81 1013.0
20260906092025 25 0 0.0 0.0 0.00 0.00 0.00 81 1013.2
20260906091545 25 0 0.0 3.2 0.00 0.00 0.00 81 1013.1
20260906091024 25 0 0.0 3.2 0.00 0.00 0.00 81 1013.1
20260906090527 25 0 0.0 3.2 0.00 0.00 0.00 81 1013.1
20260906090055 25 0 0.0 3.2 0.00 0.00 0.00 81 1013.1
20260906085526 25 297 0.0 1.6 0.00 0.00 0.00 81 1013.2
20260906085024 25 1 1.6 3.2 0.00 0.00 0.00 81 1013.2
20260906084553 25 7 0.0 9.7 0.00 0.00 0.00 81 1013.4
20260906084026 25 67 0.0 9.7 0.00 0.00 0.00 81 1013.2
20260906083523 25 352 1.6 8.0 0.00 0.00 0.00 81 1013.2
20260906083049 25 349 3.2 4.8 0.00 0.00 0.00 81 1013.2
20260906082524 25 4 1.6 3.2 0.00 0.00 0.00 81 1013.2
20260906082024 25 341 0.0 3.2 0.00 0.00 0.00 81 1013.1
20260906081548 25 0 0.0 3.2 0.00 0.00 0.00 81 1012.9
20260906081025 25 0 0.0 3.2 0.00 0.00 0.00 81 1012.9
20260906080525 25 0 0.0 4.8 0.00 0.00 0.00 81 1012.7
20260906080059 25 314 1.6 4.8 0.00 0.00 0.00 81 1012.7
20260906075524 25 331 0.0 4.8 0.00 0.00 0.00 82 1012.7
20260906075026 25 346 1.6 4.8 0.00 0.00 0.00 82 1012.6
20260906074557 25 354 1.6 6.4 0.00 0.00 0.00 82 1012.4
20260906074024 24 353 3.2 9.7 0.00 0.00 0.00 83 1012.3
20260906073524 24 348 3.2 9.7 0.00 0.00 0.00 84 1012.3
20260906073048 24 302 1.6 12.9 0.00 0.00 0.00 85 1012.3
20260906072525 23 302 4.8 12.9 0.00 0.00 0.00 87 1012.4
20260906072028 23 358 3.2 11.3 0.00 0.00 0.00 88 1012.5
20260906071549 23 4 3.2 16.1 0.00 0.00 0.00 88 1012.5
20260906071025 23 354 8.0 16.1 0.00 0.00 0.00 88 1012.7
20260906070525 23 344 8.0 16.1 0.00 0.00 0.00 89 1012.9
20260906070058 23 3 1.6 3.2 0.00 0.00 0.00 89 1012.8
20260906065524 23 348 1.6 3.2 0.00 0.00 0.00 89 1012.7
20260906065024 23 0 0.0 4.8 0.00 0.00 0.00 89 1012.8
20260906064549 23 1 0.0 4.8 0.00 0.00 0.00 89 1012.9
20260906064025 23 1 3.2 4.8 0.00 0.00 0.00 89 1012.9
20260906063524 23 0 0.0 3.2 0.00 0.00 0.00 89 1013.1
20260906063049 22 0 0.0 3.2 0.00 0.00 0.00 89 1013.2
20260906062525 23 0 0.0 3.2 0.00 0.00 0.00 88 1013.3
20260906062025 23 0 0.0 3.2 0.00 0.00 0.00 89 1013.2
20260906061550 23 352 1.6 3.2 0.00 0.00 0.00 89 1013.2
20260906061024 23 344 0.0 3.2 0.00 0.00 0.00 88 1013.2
20260906060529 23 319 0.0 3.2 0.00 0.00 0.00 88 1013.0
20260906060056 23 0 0.0 3.2 0.00 0.00 0.00 88 1012.9
20260906055524 23 114 1.6 3.2 0.00 0.00 0.00 88 1013.0
20260906055025 23 126 1.6 4.8 0.00 0.00 0.00 88 1012.9
20260906054551 23 146 1.6 4.8 0.00 0.00 0.00 88 1012.8
20260906054024 23 121 1.6 4.8 0.00 0.00 0.00 88 1012.9
20260906053525 23 98 1.6 3.2 0.00 0.00 0.00 87 1012.9
20260906053048 23 101 0.0 3.2 0.00 0.00 0.00 87 1012.8
20260906052524 23 356 1.6 3.2 0.00 0.00 0.00 87 1012.7
20260906052025 23 40 0.0 3.2 0.00 0.00 0.00 87 1012.8
20260906051554 23 0 0.0 3.2 0.00 0.00 0.00 87 1012.9
20260906051025 23 0 1.6 3.2 0.00 0.00 0.00 87 1013.0
20260906050525 23 126 0.0 1.6 0.00 0.00 0.00 86 1013.1
20260906050047 23 126 1.6 1.6 0.00 0.00 0.00 86 1013.0
20260906045523 23 0 0.0 0.0 0.00 0.00 0.00 86 1013.3
20260906045023 23 0 0.0 0.0 0.00 0.00 0.00 86 1013.3
20260906044549 23 0 0.0 3.2 0.00 0.00 0.00 86 1013.4
20260906044029 23 0 0.0 3.2 0.00 0.00 0.00 85 1013.4
20260906043526 23 175 0.0 3.2 0.00 0.00 0.00 85 1013.2
20260906043047 23 0 1.6 3.2 0.00 0.00 0.00 86 1013.2
20260906042527 23 117 0.0 3.2 0.00 0.00 0.00 85 1013.2
20260906042025 23 0 0.0 3.2 0.00 0.00 0.00 85 1013.3
20260906041548 23 117 1.6 1.6 0.00 0.00 0.00 85 1013.3
20260906041025 24 101 0.0 3.2 0.00 0.00 0.00 84 1013.4
20260906040524 24 0 0.0 3.2 0.00 0.00 0.00 84 1013.2
20260906040048 24 0 0.0 0.0 0.00 0.00 0.00 84 1013.2
20260906035523 24 0 0.0 1.6 0.00 0.00 0.00 83 1013.2
20260906035024 24 0 0.0 3.2 0.00 0.00 0.00 84 1013.4
20260906034549 24 101 1.6 3.2 0.00 0.00 0.00 83 1013.4
20260906034024 24 101 0.0 3.2 0.00 0.00 0.00 82 1013.5
20260906033524 24 0 0.0 3.2 0.00 0.00 0.00 82 1013.5
20260906033047 25 0 0.0 3.2 0.00 0.00 0.00 82 1013.6
20260906032523 25 0 0.0 3.2 0.00 0.00 0.00 82 1013.5
20260906032024 25 97 1.6 3.2 0.00 0.00 0.00 81 1013.4
20260906031545 25 90 0.0 3.2 0.00 0.00 0.00 80 1013.3
20260906031026 25 0 0.0 3.2 0.00 0.00 0.00 80 1013.2
20260906030524 25 0 0.0 3.2 0.00 0.00 0.00 80 1013.3
20260906030053 25 0 0.0 3.2 0.00 0.00 0.00 80 1013.3
20260906025524 25 0 0.0 3.2 0.00 0.00 0.00 80 1013.3
20260906025025 25 0 0.0 3.2 0.00 0.00 0.00 80 1013.2
20260906024551 25 90 0.0 4.8 0.00 0.00 0.00 80 1013.2
20260906024027 25 171 1.6 4.8 0.00 0.00 0.00 80 1013.0
20260906023525 25 115 1.6 4.8 0.00 0.00 0.00 80 1013.0
20260906023048 25 164 0.0 3.2 0.00 0.00 0.00 80 1013.0
20260906022525 25 125 1.6 3.2 0.00 0.00 0.00 80 1012.9
20260906022032 25 108 0.0 3.2 0.00 0.00 0.00 80 1013.1
20260906021553 25 148 0.0 3.2 0.00 0.00 0.00 80 1013.1
20260906021026 25 120 1.6 3.2 0.00 0.00 0.00 79 1013.0
20260906020524 25 123 0.0 3.2 0.00 0.00 0.00 78 1013.0
20260906020056 25 0 0.0 3.2 0.00 0.00 0.00 78 1012.9
20260906015525 25 0 0.0 0.0 0.00 0.00 0.00 77 1012.9
20260906015024 25 0 0.0 1.6 0.00 0.00 0.00 77 1012.7
20260906014550 26 0 0.0 3.2 0.00 0.00 0.00 77 1012.7
20260906014027 26 121 1.6 3.2 0.00 0.00 0.00 77 1012.6
20260906013525 26 173 1.6 3.2 0.00 0.00 0.00 76 1012.6
20260906013048 26 141 0.0 3.2 0.00 0.00 0.00 75 1012.5
20260906012524 26 0 0.0 0.0 0.00 0.00 0.00 75 1012.3
20260906012026 26 0 0.0 3.2 0.00 0.00 0.00 74 1012.4
20260906011602 26 0 0.0 3.2 0.00 0.00 0.00 74 1012.3
20260906011024 26 7 0.0 3.2 0.00 0.00 0.00 74 1012.2
20260906010524 26 7 0.0 3.2 0.00 0.00 0.00 73 1012.2
20260906010048 26 7 1.6 3.2 0.00 0.00 0.00 74 1012.1
20260906005525 26 350 1.6 3.2 0.00 0.00 0.00 73 1012.1
20260906005029 26 71 0.0 3.2 0.00 0.00 0.00 72 1012.0
20260906004546 26 0 0.0 3.2 0.00 0.00 0.00 71 1012.0
20260906004028 27 104 1.6 3.2 0.00 0.00 0.00 71 1012.0
20260906003526 27 104 1.6 3.2 0.00 0.00 0.00 70 1011.9
20260906003047 27 119 1.6 3.2 0.00 0.00 0.00 69 1011.8
20260906002524 28 0 1.6 3.2 0.00 0.00 0.00 67 1011.8
20260906002027 28 351 1.6 3.2 0.00 0.00 0.00 66 1011.6
20260906001548 28 0 0.0 3.2 0.00 0.00 0.00 66 1011.7
20260906001027 28 104 1.6 3.2 0.00 0.00 0.00 65 1011.7
20260906000532 28 67 0.0 3.2 0.00 0.00 0.00 63 1011.8
20260906000056 29 0 0.0 3.2 0.00 0.00 0.00 63 1011.9
20260905235525 29 5 0.0 6.4 0.00 0.00 0.00 62 1011.9
20260905235024 29 45 1.6 6.4 0.00 0.00 0.00 61 1012.1
20260905234550 29 84 0.0 3.2 0.00 0.00 0.00 60 1012.2
20260905234026 30 0 0.0 4.8 0.00 0.00 0.00 60 1012.2
20260905233524 30 0 0.0 4.8 0.00 0.00 0.00 60 1012.4
20260905233105 30 73 0.0 3.2 0.00 0.00 0.00 59 1012.5
20260905232526 30 18 0.0 3.2 0.00 0.00 0.00 59 1012.5
20260905232025 30 91 0.0 4.8 0.00 0.00 0.00 58 1012.3
20260905231555 30 96 1.6 4.8 0.00 0.00 0.00 58 1012.0
20260905231024 30 96 1.6 6.4 0.00 0.00 0.00 57 1012.0
20260905230533 30 98 3.2 6.4 0.00 0.00 0.00 57 1012.0
20260905230049 31 114 4.8 6.4 0.00 0.00 0.00 57 1012.1
20260905225528 31 63 1.6 4.8 0.00 0.00 0.00 56 1012.0
20260905225027 31 79 0.0 11.3 0.00 0.00 0.00 56 1012.0
20260905224607 31 76 3.2 11.3 0.00 0.00 0.00 56 1011.9
20260905224023 31 27 1.6 8.0 0.00 0.00 0.00 57 1011.9
20260905223527 32 89 1.6 8.0 0.00 0.00 0.00 56 1011.9
20260905223055 32 21 3.2 8.0 0.00 0.00 0.00 56 1011.9
20260905222531 32 32 1.6 6.4 0.00 0.00 0.00 55 1012.0
20260905222031 32 45 1.6 9.7 0.00 0.00 0.00 54 1012.0
20260905221547 33 73 3.2 11.3 0.00 0.00 0.00 53 1012.2
20260905221028 33 334 4.8 11.3 0.00 0.00 0.00 52 1012.3
20260905220525 33 64 1.6 8.0 0.00 0.00 0.00 53 1012.5
20260905220049 33 3 3.2 11.3 0.00 0.00 0.00 51 1012.6
20260905215524 33 11 3.2 11.3 0.00 0.00 0.00 53 1012.7
20260905215031 33 321 3.2 9.7 0.00 0.00 0.00 53 1012.6
20260905214552 33 359 3.2 9.7 0.00 0.00 0.00 53 1012.6
20260905214026 33 122 1.6 9.7 0.00 0.00 0.00 53 1012.7
20260905213525 33 65 1.6 12.9 0.00 0.00 0.00 55 1012.7
20260905213049 33 40 3.2 12.9 0.00 0.00 0.00 54 1012.7
20260905212524 33 352 3.2 11.3 0.00 0.00 0.00 56 1012.7
20260905212031 33 31 3.2 12.9 0.00 0.00 0.00 56 1012.7
20260905211543 32 78 3.2 12.9 0.00 0.00 0.00 55 1012.7
20260905211023 32 56 4.8 12.9 0.00 0.00 0.00 56 1012.7
20260905210523 32 360 1.6 12.9 0.00 0.00 0.00 58 1012.6
20260905210050 32 70 3.2 14.5 0.00 0.00 0.00 57 1012.7
20260905205524 32 20 3.2 14.5 0.00 0.00 0.00 57 1012.7
20260905205024 32 79 6.4 14.5 0.00 0.00 0.00 56 1012.7
20260905204548 33 21 3.2 12.9 0.00 0.00 0.00 56 1012.8
20260905204025 33 42 4.8 20.9 0.00 0.00 0.00 55 1012.7
20260905203524 33 2 6.4 25.7 0.00 0.00 0.00 52 1012.8
20260905203053 35 33 8.0 25.7 0.00 0.00 0.00 51 1012.8
20260905202525 36 8 8.0 22.5 0.00 0.00 0.00 49 1012.8
20260905202024 37 288 8.0 22.5 0.00 0.00 0.00 46 1012.8
20260905201551 37 354 3.2 8.0 0.00 0.00 0.00 47 1012.4
20260905201024 37 355 3.2 9.7 0.00 0.00 0.00 45 1012.4
20260905200525 36 179 1.6 9.7 0.00 0.00 0.00 47 1012.4
20260905200051 36 325 0.0 3.2 0.00 0.00 0.00 45 1012.4
20260905195526 35 11 1.6 3.2 0.00 0.00 0.00 46 1012.5
20260905195028 36 0 0.0 3.2 0.00 0.00 0.00 47 1012.8
20260905194553 36 27 0.0 6.4 0.00 0.00 0.00 46 1012.8
20260905194023 36 49 1.6 14.5 0.00 0.00 0.00 45 1012.8
20260905193526 36 352 4.8 14.5 0.00 0.00 0.00 46 1012.8
20260905193048 36 360 3.2 14.5 0.00 0.00 0.00 45 1012.8
20260905192526 36 356 3.2 12.9 0.00 0.00 0.00 47 1012.8
20260905192026 35 323 3.2 12.9 0.00 0.00 0.00 50 1012.8
20260905191551 35 331 6.4 12.9 0.00 0.00 0.00 50 1012.9
20260905191024 35 305 3.2 12.9 0.00 0.00 0.00 50 1013.0
20260905190529 35 3 6.4 12.9 0.00 0.00 0.00 49 1013.1
20260905190058 35 10 6.4 16.1 0.00 0.00 0.00 48 1013.1
20260905185524 36 11 4.8 16.1 0.00 0.00 0.00 47 1013.2
20260905185023 36 23 3.2 9.7 0.00 0.00 0.00 46 1013.1
20260905184608 37 359 3.2 14.5 0.00 0.00 0.00 45 1013.0
20260905184024 37 353 6.4 14.5 0.00 0.00 0.00 45 1013.0
20260905183525 38 37 3.2 9.7 0.00 0.00 0.00 42 1013.1
20260905183049 37 15 1.6 8.0 0.00 0.00 0.00 45 1013.0
20260905182524 37 89 1.6 4.8 0.00 0.00 0.00 50 1013.1
20260905182025 37 99 0.0 6.4 0.00 0.00 0.00 45 1013.0
20260905181547 36 359 1.6 8.0 0.00 0.00 0.00 46 1013.4
20260905181025 36 29 3.2 11.3 0.00 0.00 0.00 46 1013.5
20260905180525 36 2 3.2 11.3 0.00 0.00 0.00 47 1013.5
20260905180046 37 15 4.8 11.3 0.00 0.00 0.00 47 1013.4
20260905175524 36 353 3.2 9.7 0.00 0.00 0.00 47 1013.4
20260905175023 36 261 1.6 8.0 0.00 0.00 0.00 46 1013.4
20260905174556 36 82 3.2 8.0 0.00 0.00 0.00 46 1013.5
20260905174024 37 8 3.2 11.3 0.00 0.00 0.00 44 1013.5
20260905173525 36 33 1.6 11.3 0.00 0.00 0.00 47 1013.5
20260905173048 36 329 1.6 6.4 0.00 0.00 0.00 48 1013.6
20260905172525 36 4 3.2 6.4 0.00 0.00 0.00 50 1013.6
20260905172029 36 42 1.6 6.4 0.00 0.00 0.00 50 1013.5
20260905171547 36 239 0.0 9.7 0.00 0.00 0.00 52 1013.5
20260905171025 35 0 1.6 9.7 0.00 0.00 0.00 53 1013.5
20260905170525 35 71 4.8 9.7 0.00 0.00 0.00 53 1013.6
20260905170044 35 94 1.6 9.7 0.00 0.00 0.00 54 1013.7
20260905165523 35 35 1.6 8.0 0.00 0.00 0.00 54 1013.8
20260905165023 35 354 1.6 8.0 0.00 0.00 0.00 53 1014.0
20260905164549 35 153 0.0 4.8 0.00 0.00 0.00 57 1014.0
20260905164025 35 71 1.6 4.8 0.00 0.00 0.00 56 1014.1
20260905163525 35 94 0.0 8.0 0.00 0.00 0.00 58 1014.1
20260905163049 34 79 0.0 8.0 0.00 0.00 0.00 56 1014.2
20260905162525 34 18 3.2 8.0 0.00 0.00 0.00 57 1014.3
20260905162026 33 353 1.6 6.4 0.00 0.00 0.00 58 1014.4
20260905161549 33 283 3.2 6.4 0.00 0.00 0.00 59 1014.4
20260905161025 33 54 1.6 8.0 0.00 0.00 0.00 60 1014.5
20260905160529 33 97 3.2 8.0 0.00 0.00 0.00 61 1014.5
20260905160043 33 4 1.6 4.8 0.00 0.00 0.00 62 1014.6
20260905155524 33 127 1.6 4.8 0.00 0.00 0.00 61 1014.6
20260905155023 33 75 0.0 8.0 0.00 0.00 0.00 61 1014.6
20260905154553 33 143 0.0 8.0 0.00 0.00 0.00 62 1014.7
20260905154025 32 27 1.6 8.0 0.00 0.00 0.00 63 1014.8
20260905153525 32 116 0.0 6.4 0.00 0.00 0.00 65 1014.8
20260905153057 32 85 3.2 8.0 0.00 0.00 0.00 66 1014.7
20260905152525 32 175 4.8 8.0 0.00 0.00 0.00 66 1014.9
20260905152025 31 323 1.6 6.4 0.00 0.00 0.00 67 1014.8
20260905151550 31 85 1.6 6.4 0.00 0.00 0.00 70 1014.7
20260905151032 31 354 0.0 6.4 0.00 0.00 0.00 68 1015.0
20260905150528 31 135 1.6 8.0 0.00 0.00 0.00 71 1014.9
20260905150049 31 96 3.2 8.0 0.00 0.00 0.00 72 1014.8
20260905145526 31 150 1.6 3.2 0.00 0.00 0.00 72 1015.0
20260905145025 30 76 0.0 3.2 0.00 0.00 0.00 73 1015.0
20260905144545 30 350 1.6 3.2 0.00 0.00 0.00 74 1015.1
20260905144025 30 42 0.0 4.8 0.00 0.00 0.00 75 1015.1
20260905143524 30 10 0.0 4.8 0.00 0.00 0.00 76 1015.1
20260905143049 29 5 1.6 3.2 0.00 0.00 0.00 76 1015.1
20260905142524 28 0 0.0 3.2 0.00 0.00 0.00 79 1015.2
20260905142025 28 2 0.0 3.2 0.00 0.00 0.00 80 1015.2
20260905141548 28 71 0.0 3.2 0.00 0.00 0.00 81 1015.3
20260905141024 27 0 0.0 3.2 0.00 0.00 0.00 82 1015.4
20260905140524 27 187 0.0 3.2 0.00 0.00 0.00 84 1015.4
20260905140046 27 93 0.0 3.2 0.00 0.00 0.00 84 1015.4
20260905135526 27 146 1.6 3.2 0.00 0.00 0.00 84 1015.4
20260905135024 26 0 0.0 3.2 0.00 0.00 0.00 86 1015.4
20260905134542 26 344 1.6 3.2 0.00 0.00 0.00 87 1015.5
20260905134024 26 50 0.0 3.2 0.00 0.00 0.00 87 1015.5
20260905133523 26 0 0.0 3.2 0.00 0.00 0.00 88 1015.5
20260905133049 25 109 1.6 3.2 0.00 0.00 0.00 89 1015.5
20260905132524 25 98 0.0 3.2 0.00 0.00 0.00 90 1015.6
20260905132027 25 0 0.0 3.2 0.00 0.00 0.00 90 1015.7
20260905131559 25 0 0.0 3.2 0.00 0.00 0.00 91 1015.7